Probability
0 45 97 97 97 97 97 90 77 61 42 19 10 0 0 0 0 0 0 0 0 0 0 0 0 0 0 0 0 0 0 0 0 0 0 0 0 0 0 0 0 0 0
0 68 97 97 97 97 97 90 71 52 32 13 10 0 0 0 0 0 0 0 0 0 0 0 0 0 0 0 0 0 0 0 0 0 0 0 0 0 0 0 0 0 0
23 94 97 97 97 97 94 90 55 45 23 13 0 0 0 0 0 0 0 0 0 0 0 0 0 0 0 0 0 0 0 0 0 0 0 0 0 0 0 0 0 0 0
65 94 97 100 97 94 94 81 55 32 16 3 3 6 6 6 13 6 3 0 0 0 0 0 0 0 0 0 0 0 0 0 0 0 0 0 0 0 0 0 0 0 0
61 90 97 100 100 94 90 74 42 23 10 3 10 16 19 16 16 13 3 3 0 0 0 0 0 0 0 0 0 0 0 0 0 0 0 0 0 0 0 0 0 0 0
52 84 97 100 97 94 84 68 23 19 3 0 13 19 19 19 13 6 0 0 0 0 0 0 0 0 0 0 0 0 0 0 0 0 0 0 0 0 0 0 0 0 0
58 84 94 97 97 94 81 48 19 3 0 3 10 19 19 16 10 10 0 0 0 0 0 0 0 0 0 0 0 0 0 0 0 0 0 0 0 0 0 0 0 0 0
65 87 97 97 94 94 77 42 13 3 3 3 10 13 13 13 13 0 0 0 0 0 0 0 0 0 0 0 0 0 0 0 0 0 0 0 0 0 0 0 0 0 0
71 87 90 90 84 84 65 48 13 6 3 3 10 10 6 6 3 0 0 0 0 0 0 0 0 0 0 0 0 0 0 0 0 0 0 0 0 0 0 0 0 0 0
55 68 61 58 55 32 26 13 6 6 3 0 0 0 0 0 0 0 0 0 0 0 0 0 0 0 0 0 0 0 0 0 0 0 0 0 0 0 0 0 0 0 0
55 52 39 32 26 10 6 6 3 0 0 0 0 0 0 0 0 0 0 0 0 0 0 0 0 0 0 0 0 0 0 0 0 0 0 0 0 0 0 0 0 0 0
19 29 23 10 10 0 0 0 0 0 0 0 0 0 0 0 0 0 0 0 0 0 0 0 0 0 0 0 0 0 0 0 0 0 0 0 0 0 0 0 0 0 0
3 6 10 6 0 3 0 0 0 0 0 0 0 0 0 0 0 0 0 0 0 0 0 0 0 0 0 0 0 0 0 0 0 0 0 0 0 0 0 0 0 0 0
3 0 0 0 0 0 0 0 0 0 0 0 0 0 0 0 0 0 0 0 0 0 0 0 0 0 0 0 0 0 0 0 0 0 0 0 0 0 0 0 0 0 0
0 0 0 3 0 0 0 0 0 0 0 0 0 0 0 0 0 0 0 0 0 0 0 0 0 0 0 0 0 0 0 0 0 0 0 0 0 0 0 0 0 0 0
0 0 0 0 0 0 0 0 0 0 0 0 0 0 0 0 0 0 0 0 0 0 0 0 0 0 0 0 0 0 0 0 0 0 0 0 0 0 0 0 0 0 0
0 0 0 0 0 0 0 0 0 0 0 0 0 0 0 0 0 0 0 0 0 0 0 0 0 0 0 0 0 0 0 0 0 0 0 0 0 0 0 0 0 0 0
0 0 0 0 0 0 0 0 0 0 0 0 0 0 0 0 0 0 0 0 0 0 0 0 0 0 0 0 0 0 0 0 0 0 0 0 0 0 0 0 0 0 0
0 0 0 0 0 0 0 0 0 0 0 0 0 0 0 0 0 0 0 0 0 0 0 0 0 0 0 0 0 0 0 0 0 0 0 0 0 0 0 0 0 0 0
0 0 0 0 0 0 0 0 0 0 0 0 0 0 0 0 0 0 0 0 0 0 0 0 0 0 0 0 0 0 0 0 0 0 0 0 0 0 0 0 0 0 0
0 0 0 0 0 0 0 0 0 0 0 0 0 0 0 0 0 0 0 0 0 0 0 0 0 0 0 0 0 0 0 0 0 0 0 0 0 0 0 0 0 0 0
0 0 0 0 0 0 0 0 0 0 0 0 0 0 0 0 0 0 0 0 0 0 0 0 0 0 0 0 0 0 0 0 0 0 0 0 0 0 0 0 0 0 0
0 0 0 0 0 0 0 0 0 0 0 0 0 0 0 0 0 0 0 0 0 0 0 0 0 0 0 0 0 0 0 0 0 0 0 0 0 0 0 0 0 0 0
0 0 0 0 0 0 0 0 0 0 0 0 0 0 0 0 0 0 0 0 0 0 0 0 0 0 0 0 0 0 0 0 0 0 0 0 0 0 0 0 0 0 0
0 0 0 0 0 0 0 0 0 0 0 0 0 0 0 0 0 0 0 0 0 0 0 0 0 0 0 0 0 0 0 0 0 0 0 0 0 0 0 0 0 0 0
0 0 0 0 0 0 0 0 0 0 0 0 0 0 0 0 0 0 0 0 0 0 0 0 0 0 0 0 0 0 0 0 0 0 0 0 0 0 0 0 0 0 0
Height
5887 5888 5889 5890 5891 5892 5893 5894 5894 5894 5895 5895 5895 5895 5895 5896 5896 5895 5895 5895 5895 5894 5894 5893 5892 5892 5891 5890 5889 5889 5888 5887 5886 5885 5885 5884 5883 5882 5881 5879 5878 5877 5876
5885 5887 5888 5889 5890 5891 5892 5893 5893 5894 5894 5894 5894 5895 5895 5895 5895 5895 5894 5894 5893 5893 5892 5892 5891 5890 5890 5889 5888 5887 5886 5885 5884 5884 5883 5882 5880 5879 5878 5877 5876 5875 5874
5883 5885 5886 5888 5889 5890 5891 5892 5892 5893 5893 5893 5893 5894 5894 5894 5894 5894 5893 5893 5892 5892 5891 5890 5890 5889 5888 5887 5886 5886 5885 5884 5883 5882 5881 5879 5878 5877 5876 5875 5874 5873 5871
5881 5883 5884 5886 5887 5889 5890 5891 5891 5892 5892 5892 5892 5893 5893 5893 5893 5892 5892 5892 5891 5890 5890 5889 5888 5887 5886 5886 5885 5884 5883 5882 5881 5880 5878 5877 5876 5875 5873 5872 5871 5870 5869
5879 5881 5883 5884 5886 5887 5888 5889 5890 5890 5891 5891 5891 5891 5891 5892 5891 5891 5891 5890 5890 5889 5888 5888 5887 5886 5885 5884 5883 5882 5881 5880 5879 5877 5876 5875 5873 5872 5871 5869 5868 5867 5866
5876 5878 5880 5882 5884 5885 5887 5888 5888 5889 5889 5890 5890 5890 5890 5890 5890 5890 5889 5889 5888 5887 5887 5886 5885 5884 5883 5882 5881 5880 5879 5877 5876 5875 5874 5872 5871 5869 5868 5867 5865 5864 5863
5874 5876 5878 5880 5882 5883 5885 5886 5887 5887 5888 5888 5888 5888 5888 5888 5888 5888 5888 5887 5886 5886 5885 5884 5883 5882 5881 5880 5879 5877 5876 5875 5873 5872 5871 5869 5868 5866 5865 5864 5862 5861 5860
5871 5873 5875 5877 5879 5881 5883 5884 5885 5886 5886 5886 5886 5886 5887 5886 5886 5886 5886 5885 5884 5884 5883 5882 5881 5880 5879 5878 5876 5875 5874 5872 5871 5869 5868 5866 5865 5863 5862 5861 5859 5858 5856
5868 5870 5873 5875 5877 5878 5880 5881 5883 5883 5884 5884 5885 5885 5884 5884 5884 5884 5883 5883 5882 5882 5881 5880 5879 5878 5877 5876 5874 5873 5871 5870 5868 5867 5865 5863 5862 5860 5858 5857 5855 5854 5853
5864 5867 5870 5872 5874 5875 5877 5879 5880 5881 5881 5882 5882 5882 5882 5882 5882 5881 5881 5880 5880 5879 5878 5878 5877 5875 5874 5873 5871 5870 5868 5867 5865 5863 5862 5860 5858 5857 5855 5853 5852 5850 5849
5861 5864 5866 5868 5870 5872 5874 5875 5877 5878 5879 5879 5880 5880 5880 5880 5879 5879 5878 5878 5877 5876 5875 5875 5874 5873 5871 5870 5868 5866 5865 5863 5862 5860 5858 5856 5854 5853 5851 5849 5848 5846 5845
5856 5860 5862 5865 5867 5868 5870 5872 5873 5874 5875 5876 5876 5877 5877 5877 5877 5876 5876 5875 5874 5873 5872 5872 5871 5869 5868 5867 5865 5863 5861 5860 5858 5856 5854 5853 5851 5849 5847 5845 5843 5842 5840
5852 5855 5858 5861 5863 5865 5867 5868 5870 5871 5872 5872 5873 5873 5873 5873 5873 5873 5872 5872 5871 5870 5869 5868 5867 5866 5864 5863 5861 5860 5858 5856 5854 5852 5850 5848 5846 5844 5842 5840 5839 5837 5835
5847 5851 5854 5856 5859 5861 5863 5864 5866 5867 5868 5869 5869 5869 5869 5869 5869 5869 5869 5868 5867 5867 5866 5865 5863 5862 5860 5859 5857 5855 5854 5852 5850 5848 5845 5843 5841 5839 5837 5835 5833 5832 5830
5842 5846 5849 5852 5854 5856 5858 5860 5862 5863 5864 5864 5865 5865 5865 5865 5865 5865 5864 5864 5863 5863 5862 5861 5859 5858 5856 5854 5852 5851 5849 5847 5845 5843 5840 5838 5836 5833 5831 5829 5828 5826 5824
5837 5840 5844 5846 5849 5851 5854 5855 5857 5858 5859 5860 5860 5861 5861 5861 5861 5860 5860 5859 5858 5858 5857 5856 5854 5853 5851 5849 5847 5845 5843 5841 5839 5837 5834 5832 5829 5827 5825 5823 5821 5819 5817
5831 5834 5838 5841 5843 5846 5848 5850 5852 5853 5854 5855 5855 5856 5856 5856 5856 5855 5855 5854 5853 5853 5851 5850 5849 5847 5845 5843 5841 5839 5837 5835 5833 5830 5828 5825 5822 5820 5817 5815 5813 5811 5809
5825 5828 5831 5835 5838 5840 5842 5844 5846 5847 5848 5849 5850 5850 5850 5850 5851 5850 5850 5849 5848 5847 5846 5844 5842 5841 5839 5837 5835 5832 5830 5828 5825 5823 5820 5817 5814 5811 5809 5806 5805 5803 5801
5818 5822 5825 5828 5831 5834 5836 5838 5839 5841 5842 5843 5843 5844 5844 5845 5845 5845 5844 5843 5842 5841 5839 5838 5836 5834 5832 5830 5828 5826 5823 5821 5818 5815 5812 5809 5806 5803 5800 5797 5795 5794 5792
5811 5815 5818 5822 5824 5827 5829 5831 5833 5834 5835 5836 5837 5837 5838 5838 5838 5838 5838 5837 5835 5834 5833 5831 5829 5827 5826 5823 5821 5819 5816 5813 5810 5807 5804 5801 5797 5794 5791 5788 5786 5784 5782
5803 5807 5811 5814 5817 5819 5822 5824 5826 5827 5829 5830 5830 5831 5831 5831 5831 5831 5831 5830 5828 5827 5826 5824 5822 5820 5818 5815 5813 5811 5809 5806 5802 5799 5795 5792 5789 5785 5782 5779 5776 5773 5771
5795 5799 5803 5806 5809 5812 5814 5817 5819 5820 5822 5823 5823 5824 5824 5824 5824 5824 5823 5822 5821 5820 5818 5816 5814 5812 5810 5807 5804 5801 5801 5799 5794 5790 5786 5783 5779 5776 5772 5768 5765 5762 5759
5787 5790 5794 5797 5800 5803 5806 5808 5811 5812 5814 5815 5816 5816 5816 5817 5816 5816 5815 5815 5813 5812 5810 5808 5805 5803 5800 5798 5794 5791 5789 5789 5786 5783 5778 5774 5769 5766 5762 5758 5754 5750 5747
5779 5782 5786 5789 5792 5795 5797 5800 5802 5804 5805 5807 5808 5808 5808 5808 5808 5808 5807 5806 5804 5803 5801 5799 5796 5793 5790 5788 5785 5781 5778 5776 5774 5773 5770 5765 5760 5756 5752 5747 5743 5739 5735
5771 5774 5777 5780 5783 5786 5789 5791 5793 5795 5797 5798 5799 5799 5799 5799 5799 5799 5798 5797 5795 5793 5791 5789 5786 5783 5780 5778 5775 5771 5768 5765 5762 5759 5759 5756 5751 5746 5741 5736 5732 5727 5723
5762 5765 5769 5771 5774 5777 5779 5782 5784 5786 5787 5789 5790 5791 5791 5790 5790 5789 5788 5787 5785 5784 5781 5779 5776 5773 5770 5767 5764 5761 5758 5755 5752 5748 5747 5744 5740 5736 5730 5725 5720 5715 5710
Wind_Speed
14 13 12 11 10 9 8 7 6 5 4 3 3 3 5 6 7 8 9 9 10 10 10 11 11 11 11 11 11 12 12 13 13 14 15 15 16 16 16 17 17 17 17
15 15 13 12 11 10 9 8 7 5 4 3 3 4 5 7 8 9 9 9 10 10 11 11 11 11 12 12 12 13 13 14 15 15 16 17 17 17 18 18 18 18 18
16 15 14 13 12 11 9 8 6 5 4 3 4 5 6 8 9 9 10 10 10 10 11 11 12 12 12 13 13 14 14 15 16 16 17 17 18 18 18 18 19 19 18
16 15 14 13 12 11 9 8 6 4 4 4 5 6 7 8 9 10 11 11 11 11 12 12 13 13 13 14 14 15 15 16 17 17 18 18 18 19 19 19 19 19 19
17 15 14 13 11 10 9 7 6 5 5 5 6 7 8 9 10 11 12 12 12 12 13 13 14 14 14 14 15 16 17 17 18 18 18 19 19 19 20 19 19 19 19
18 16 14 12 11 10 9 7 6 6 6 7 7 8 9 10 11 12 13 13 13 13 14 14 15 15 15 16 16 17 18 19 19 19 20 20 20 20 20 20 20 20 19
19 17 15 13 12 10 9 8 7 7 8 9 9 10 11 12 13 13 14 14 14 14 14 14 15 16 16 17 18 19 19 20 20 21 21 21 21 21 21 21 21 20 20
19 17 16 14 12 11 10 9 9 9 9 10 11 12 13 13 14 14 15 15 15 15 15 15 16 17 17 18 19 20 20 21 22 22 22 22 22 22 22 22 21 21 21
21 19 17 15 14 12 11 11 10 10 10 11 12 13 14 15 15 16 16 16 16 16 16 16 17 18 19 19 20 21 22 22 23 23 23 24 24 23 23 23 23 23 22
23 21 19 17 16 14 13 12 12 11 12 12 13 13 14 15 16 17 17 17 17 17 17 17 18 19 20 21 22 23 23 24 25 25 25 25 25 25 25 25 25 24 24
25 23 21 19 18 17 15 14 14 13 13 14 14 14 15 16 16 17 17 18 18 18 19 19 20 20 21 22 23 24 25 26 26 26 26 27 26 26 26 26 26 26 26
28 25 23 22 20 19 18 17 16 15 15 16 16 16 16 17 17 17 17 18 19 19 20 20 21 22 23 23 24 26 27 27 27 28 28 28 28 28 28 28 28 28 28
30 28 26 24 23 22 21 19 18 18 18 18 18 18 18 18 18 18 19 19 20 20 21 21 22 23 24 25 26 27 28 29 29 30 30 30 31 31 31 31 30 30 30
32 30 28 27 26 24 23 22 21 20 20 20 20 20 20 20 20 20 20 21 21 21 22 22 23 25 26 27 27 28 29 30 30 31 32 32 33 33 33 33 33 33 33
34 32 30 29 28 27 26 25 24 23 23 22 22 22 22 22 22 22 22 22 23 23 23 24 25 26 27 28 29 30 31 31 32 33 34 34 35 36 36 36 36 36 36
35 34 33 32 31 30 28 27 27 26 25 25 24 24 24 24 24 24 24 24 25 25 25 26 27 28 29 30 31 32 33 34 34 35 36 37 37 38 38 39 39 39 38
38 36 35 34 34 32 31 30 29 29 28 27 27 26 26 26 26 26 26 27 27 27 27 28 29 30 31 32 34 35 36 36 37 38 38 39 39 40 40 41 41 41 41
39 38 37 36 35 34 33 32 32 31 30 30 29 29 28 28 28 28 28 29 29 29 30 31 32 33 34 35 37 38 38 39 40 40 41 41 42 42 43 43 43 43 43
41 40 39 38 37 36 35 35 34 34 33 33 32 31 31 31 30 30 30 31 31 32 33 34 35 36 37 38 40 40 41 42 43 43 43 44 45 45 45 45 44 44 44
44 42 41 40 39 38 38 37 37 36 36 35 34 34 34 33 32 32 32 33 34 34 35 37 38 39 40 41 42 42 43 44 44 45 45 46 46 46 46 46 46 46 46
46 45 43 42 41 41 40 40 39 39 38 37 36 35 35 35 35 35 34 35 36 37 38 39 40 41 42 44 45 45 45 45 45 46 46 46 46 46 46 47 47 47 47
47 46 45 44 43 43 43 42 41 41 40 39 38 37 37 37 37 37 37 38 39 40 41 42 43 44 44 46 47 47 46 45 45 46 46 45 45 46 47 48 48 48 49
45 45 45 45 44 44 44 43 42 42 41 40 39 39 39 39 39 39 40 40 41 42 43 44 45 46 47 48 48 49 49 47 46 45 44 45 45 46 47 48 49 50 51
44 44 45 45 45 44 43 43 43 43 42 41 41 41 41 41 41 42 42 43 43 44 45 46 47 48 49 49 49 49 49 48 47 45 44 44 45 46 47 48 49 51 51
43 43 44 45 45 45 45 44 44 44 43 42 42 42 43 43 43 44 44 45 45 46 47 48 49 49 50 50 49 49 48 48 47 46 45 44 46 47 48 49 50 50 51
43 43 44 45 45 45 46 46 46 45 45 44 44 45 45 45 45 45 46 46 46 47 48 49 49 50 50 49 48 48 48 47 46 46 45 45 46 47 48 49 49 50 52
Wind_Direction
234 238 243 250 257 263 271 275 277 280 285 300 322 337 346 351 352 350 348 345 341 339 337 336 334 333 332 330 327 324 322 320 318 317 316 316 316 316 315 314 313 311 310
237 241 247 254 259 264 268 269 272 277 286 305 330 342 347 348 346 343 340 337 335 334 333 332 331 330 330 329 326 323 321 319 317 316 315 315 315 314 313 313 311 310 308
238 242 247 252 256 258 261 263 268 276 291 313 331 339 341 340 338 337 334 332 330 328 327 327 328 329 329 328 326 323 320 318 316 314 313 313 313 312 311 310 309 308 307
237 240 243 248 249 250 253 259 265 276 291 310 324 331 332 331 331 331 329 328 326 324 322 324 325 326 326 325 323 321 319 316 315 313 312 312 312 311 310 309 308 307 306
233 235 237 240 240 242 247 255 264 277 290 304 314 320 323 324 325 325 325 324 322 321 320 321 322 322 322 322 320 319 317 315 314 312 311 310 310 310 310 309 308 307 305
230 229 230 232 233 237 243 252 264 278 289 299 307 311 315 318 319 321 322 322 321 320 320 320 319 320 320 320 319 318 317 315 314 313 311 310 309 309 308 307 306 304 303
229 226 227 228 230 235 242 251 263 275 286 295 302 307 311 313 316 318 319 319 319 320 319 318 318 319 319 318 318 317 316 315 314 312 311 309 307 306 305 303 302 301 300
228 226 227 227 230 235 242 251 262 273 282 290 297 302 306 309 312 314 315 316 317 318 318 318 318 318 318 317 316 316 315 314 313 311 310 308 306 305 304 302 300 299 298
226 226 228 229 233 238 245 253 262 271 279 285 289 295 300 304 307 309 311 313 315 315 316 317 318 318 318 317 316 315 314 313 312 310 309 307 306 304 302 300 299 297 296
226 227 229 233 237 243 249 257 264 271 276 281 285 290 294 298 302 305 308 310 312 313 314 316 316 317 317 316 316 315 314 313 311 310 308 307 305 303 302 300 298 296 294
229 229 231 235 241 246 253 260 266 271 275 278 283 287 290 293 296 299 303 306 308 310 312 313 314 314 314 314 313 313 312 311 310 309 308 306 305 303 301 299 297 295 293
230 231 233 237 243 249 254 261 267 272 275 278 282 285 287 290 292 296 299 302 304 307 309 310 312 313 312 312 311 311 311 310 310 308 307 305 304 302 301 299 297 295 293
230 232 234 238 244 249 255 260 266 271 274 278 281 284 286 288 291 294 297 300 302 304 306 308 310 310 311 311 310 310 310 309 309 307 306 304 303 301 300 298 296 294 293
230 232 236 240 244 249 254 260 265 269 272 276 280 283 285 287 290 292 295 297 300 302 304 306 307 308 308 308 308 308 308 308 307 306 305 304 302 300 298 297 296 294 292
229 232 236 240 244 249 254 258 263 267 270 273 277 280 283 285 288 290 293 295 297 300 302 303 304 305 305 306 306 306 306 306 305 304 303 303 301 300 299 297 296 295 293
230 233 236 240 244 248 252 257 261 264 267 270 274 277 280 282 285 289 291 294 296 298 300 301 302 303 303 303 304 304 304 304 303 303 302 301 300 299 299 298 296 295 293
230 233 237 241 244 247 251 256 259 262 266 268 272 274 276 279 282 286 289 291 294 297 298 299 300 300 301 301 302 302 302 302 302 301 301 301 300 299 298 297 296 295 293
232 234 237 241 244 247 251 255 259 262 265 268 270 272 274 276 280 283 286 289 292 294 296 297 298 299 299 299 299 300 300 300 300 300 300 300 299 299 298 297 296 295 294
233 235 238 241 244 248 252 256 259 262 265 267 270 271 273 275 278 280 283 286 289 291 293 294 295 297 297 297 298 298 299 299 300 300 300 299 299 299 298 297 296 295 294
233 235 238 241 245 248 251 254 258 261 264 266 268 270 272 274 276 279 281 284 286 289 290 292 293 294 295 295 296 297 298 299 300 300 299 299 299 298 297 297 296 295 294
236 236 237 239 243 246 249 252 255 258 261 264 266 268 270 273 275 277 280 282 285 287 288 289 290 292 293 293 294 296 297 298 299 298 298 299 298 298 297 297 296 295 294
238 238 238 240 242 245 248 251 253 256 258 261 263 265 268 271 273 276 278 281 283 285 287 288 289 290 292 293 294 295 296 297 297 298 298 298 298 298 298 297 296 294 293
238 239 240 242 243 245 248 251 253 255 258 260 262 264 267 270 272 275 278 280 282 284 286 287 289 291 292 293 295 296 296 296 296 297 297 298 298 298 298 298 296 295 294
239 240 242 244 245 247 249 252 254 256 258 260 262 265 267 269 272 275 277 280 282 284 286 287 289 291 292 293 294 296 297 297 297 297 297 297 298 298 299 298 297 296 294
239 241 243 245 247 248 250 252 254 256 258 260 262 265 268 270 273 275 277 280 282 284 286 287 289 290 292 293 294 295 296 297 297 298 298 298 299 299 299 298 297 297 295
241 242 243 245 247 249 251 252 254 256 258 261 263 266 268 271 273 275 278 280 282 284 286 287 289 290 292 293 294 295 296 296 297 298 299 300 300 300 299 299 299 298 296